Location: Newark
(25.1987°N, 100.3705°W)
Time: 16:07:18
(UTC+00:00)

Envisat - Pass Details

Date: 02 August 2021
Orbit: 764 x 766 km, 98.2° (Epoch: 18 September)

Event Time Altitude Azimuth Distance (km) Brightness Sun altitude
Rises 10:53:04 0° 33° (NNE) 3,229 7.4 -16.5°
Reaches altitude 10° 10:55:57 10° 49° (NE) 2,300 6.8 -16.0°
Maximum altitude 10:59:40 20° 97° (E) 1,690 5.5 -15.2°
Drops below altitude 10° 11:03:21 10° 144° (SE) 2,291 5.6 -14.5°
Sets 11:06:12 0° 160° (SSE) 3,214 6.1 -13.9°
